STARLINK-34241, 64229

Orbit data source: Space-Track

STARLINK-34241, 64229 is a payload satellite owned by SpaceX/Seattle (US) in LEO that was launched on Thu, 05 Jun 2025 UTC via an FALCON 9 launch vehicle from the Air Force Western Test Range (AFWTR). Payload-class satellites include a variety of spacecraft equipped with specific instruments for various scientific and technological missions. These include communications satellites like Starlink; space stations such as the ISS; scientific satellites like the Hubble; Earth observation satellites from companies like Planet Labs, Umbra, and HawkEye 360; GPS; miniature CubeSats for education and research; and military/defense satellites.

Loading next visibility...
Identifier
64229, 2025-117AC
Orbit
LEO
Last TLE update
3 hours ago
Origin
Manufacturer
SpaceX/Seattle
Mission
Operational spacecraft
Bus & Motor
STARLINK V2MO, Unknown motor
Mass
575 kg wet, ~530 kg dry
Launch date (UTC)
2025-06-05 (2 weeks ago)
Launch vehicle
FALCON 9
Launch site
Air Force Western Test Range (AFWTR)
Object type
Payload
Rocket body
Debris
Shape & HBR
Unknown
Radar Cross Section
Large (>1 m²)

Expand to show TLE details & history

TLE from 3 hours ago
0 STARLINK-34241
1 64229U 25117AC  25170.16670139 -.01850789  00000-0 -46737-1 0  9995
2 64229  53.1609 190.8498 0001359  98.4936  76.3399 15.42508521  3042
Epoch: 2025-06-19T04:00Z
TLE epoch observation values (Epoch: 2025-06-19T04:00:03Z)
Latitude
4.06562°
Longitude
40.16362°
Altitude
438.958 km
Speed
7.65 km/s
True Right ascension
00h 31m 15s
True Declination
4° 02' 25"
Sunlit
Object was in daylight at epoch
Visualization orbit readout
Latitude
-16.30111°
Longitude
55.14795°
Altitude
444.881 km
Speed
7.645 km/s
Apparent Right ascension
03h 25m 14s
Apparent Declination
-32° 05' 32"
Sunlit
Object is in daylight
Visualization observer readout
Local Sidereal Time
18:03:53
Azimuth
88.836° E
Elevation
-57.258°
Doppler factor
1
Orbital elements
Apogee altitude
439.893 km
Perigee altitude
438.04 km
Semi-major axis
6,817.103 km
Eccentricity
0.00014
Inclination
53.1609°
RAAN
190.8498°
Arg. of periapsis
98.4936°
True anomaly
Unknown
Mean anomaly
76.3399°
Eccentric anomaly
Unknown
Mean motion
3.85606 °/min
Orbital period
93.36 mins
BSTAR
-0.046737
Loading maneuver chart data...
Loading SW <> Apogee altitude chart data...
Loading historical data...
Loading historical data...
Loading historical data...
Loading historical data...
Loading historical data...
Loading historical data...
Loading historical data...

STARLINK-34241 Visibility forecast

Observer location: undefined°, undefined°

Span
Click to sort rows by Start time (UTC) header in descending order
Start Az.
Max El. time (UTC)
Max El. Az.
Max El.
End time (UTC)
End Az.
5 mins2025-06-19 09:55:17.277Z335.892° NNW2025-06-19 09:58:17.277Z40.168° NE20.441°2025-06-19 10:00:17.277Z77.779° E
5 mins2025-06-19 11:33:17.277Z291.083° WNW2025-06-19 11:35:17.277Z215.526° SW37.568°2025-06-19 11:38:17.277Z149.04° SSE
5 mins2025-06-20 04:22:17.277Z251.563° W2025-06-20 04:24:17.277Z348.172° N39.873°2025-06-20 04:27:17.277Z43.135° NE
|